Retour au catalogue

STARLINK-31353

ActifCommunicationsVLEO
NORAD 58980·PAYLOAD·🇺🇸 United States

Lancé Feb 15, 2024 depuis Vandenberg Space Force Base

Loading…

Prochains Passages (prochaines 24 heures)

TLE

FraisSource: CelesTrak SupGP

Époque: Sep 14, 2026, 22:33 UTC

1 58980C 24031R   26257.94006944 -.00037265  00000+0 -11011-2 0  2575
2 58980  53.1574 135.6119 0001315  79.3787  40.5655 15.34404929    11

Suivez STARLINK-31353 en temps réel avec AllMySat

Download on the App Store